Wind_Speed
26 26 27 27 26 25 23 23 22 22 22 23 23 23 24 24 24 24 25 25 25 25 25 25 24 25 26 26 27 27 27 28 28 29 29 29 28 27 28 26 27 29 29 28 27 26 25 24 23 21 21 22 23 23 22 22 20 20 19 17 15 14 15 16 18 21 22 22 22 22 22 23 23 25 28 30 31 31 30 30 30 31 31 30 29 30 30 31
26 26 26 27 27 26 25 24 23 23 23 23 23 23 23 23 24 24 24 24 24 24 24 23 23 23 23 24 24 24 25 26 27 27 27 27 27 26 26 25 26 28 28 27 26 25 25 23 22 21 21 21 22 22 22 21 20 20 18 15 14 15 15 17 19 20 21 22 22 22 22 23 24 25 27 29 31 31 31 31 31 31 31 31 31 31 31 31
26 26 26 26 27 27 27 26 25 25 24 24 24 24 24 24 24 23 23 23 23 23 23 23 23 22 22 22 22 23 24 24 25 26 26 26 25 25 25 25 26 27 27 26 25 24 24 23 22 21 21 21 22 22 22 21 21 20 17 15 14 15 16 17 19 20 21 20 21 22 22 23 24 25 26 28 30 31 32 32 32 32 32 32 32 32 32 31
25 25 26 26 26 27 28 28 27 26 26 26 26 25 25 24 24 23 23 22 22 22 22 22 22 22 22 22 22 23 23 24 25 25 24 25 25 24 24 24 25 26 25 25 24 24 24 23 23 22 21 21 22 22 22 21 21 20 17 15 14 16 17 17 18 20 20 19 20 21 22 22 23 24 24 26 28 30 32 33 33 33 33 32 32 31 29 27
24 25 26 26 27 27 28 29 29 28 28 28 27 26 26 25 24 24 23 22 22 22 22 22 22 22 22 22 22 22 23 25 25 24 24 25 24 24 24 24 25 25 25 24 24 24 24 23 23 23 22 22 22 22 22 21 21 19 17 16 16 18 18 18 19 20 19 19 19 20 20 20 20 21 22 24 27 28 30 32 33 33 33 31 28 25 23 24
24 24 25 26 27 27 27 28 29 30 30 29 29 28 27 27 26 25 24 23 23 23 23 23 23 23 22 22 22 22 24 25 25 24 24 24 24 24 24 24 25 25 25 25 25 24 24 24 24 24 23 23 23 23 23 23 22 19 17 16 17 19 19 20 21 20 19 19 18 18 18 18 18 19 20 23 25 27 28 29 30 30 29 25 22 21 22 24
22 23 24 25 26 27 27 28 29 30 31 30 30 29 29 28 27 26 26 25 25 25 25 25 25 24 24 23 23 23 24 25 24 24 24 23 23 23 23 24 24 25 25 25 25 25 25 25 24 25 25 25 25 25 25 24 23 20 18 17 18 19 20 22 22 19 17 18 18 17 17 17 17 18 19 22 24 24 26 26 26 26 24 22 21 23 24 26
21 22 23 24 25 26 27 28 28 29 30 31 30 30 29 29 28 28 27 27 27 27 27 27 27 26 26 25 24 24 25 25 24 24 24 23 23 23 23 24 24 24 24 25 25 25 25 25 26 26 26 27 26 27 26 26 24 21 19 20 21 21 22 23 21 17 16 17 17 16 16 17 17 18 20 22 23 23 24 24 24 24 23 22 23 24 25 26
20 20 22 23 24 25 26 27 28 29 29 30 30 30 29 29 29 28 28 28 28 29 29 28 28 27 27 27 26 26 26 25 24 24 23 23 23 23 24 24 24 24 24 25 25 25 26 26 27 27 28 28 28 28 28 27 26 23 22 22 22 23 24 23 20 18 17 17 17 16 17 17 17 18 20 21 22 23 24 24 23 23 24 24 24 25 25 23
20 20 20 22 23 25 25 26 27 28 29 29 29 29 29 28 28 27 27 28 28 29 29 28 27 26 26 26 27 28 28 27 26 24 23 23 23 23 23 24 24 24 25 25 25 26 27 28 29 29 30 30 29 30 29 28 27 25 25 24 23 24 24 22 20 19 18 17 17 16 17 18 17 17 18 19 21 22 23 23 23 23 23 22 23 24 22 19
20 20 20 21 22 24 25 25 26 27 28 28 28 29 28 28 27 26 26 26 27 27 27 27 26 25 25 25 26 27 27 27 26 25 24 23 23 23 23 24 24 24 25 25 26 27 27 28 29 29 30 30 30 30 29 29 28 27 25 24 24 24 24 22 21 20 19 19 18 17 18 19 17 15 16 18 19 20 21 21 21 21 20 20 21 22 19 16
21 21 21 21 21 22 23 24 25 25 27 28 28 28 28 28 26 25 25 25 25 25 25 25 24 24 24 25 25 25 25 27 26 24 23 22 23 23 23 24 24 25 25 25 26 26 27 28 28 29 29 29 29 30 30 29 28 27 25 25 25 25 24 23 21 21 20 20 18 18 19 17 15 15 15 16 18 18 18 18 18 19 18 19 22 21 17 16
21 21 21 21 21 21 21 23 24 24 25 27 27 27 27 26 26 25 24 24 23 23 23 23 23 22 23 25 24 24 25 26 24 22 22 22 23 23 23 24 24 25 25 25 25 25 26 26 27 27 27 28 29 29 29 29 28 27 26 25 26 25 25 23 23 22 21 21 19 19 19 17 16 16 16 17 17 17 17 16 17 17 18 21 23 21 18 16
21 21 21 21 20 20 20 21 22 23 24 25 26 26 26 25 25 24 24 23 23 23 22 22 23 23 24 25 23 24 25 24 22 22 23 23 22 23 23 23 23 24 24 24 24 24 25 25 25 26 26 27 28 28 29 29 28 27 26 26 26 25 25 24 24 23 23 23 22 22 22 19 18 18 18 18 18 17 17 17 16 17 20 23 23 21 19 18
20 20 20 20 20 20 19 19 20 21 22 23 24 25 25 24 24 24 23 23 22 22 22 23 23 23 24 24 24 25 25 22 22 22 23 22 21 22 22 22 22 22 23 23 23 24 24 24 24 25 25 26 27 28 29 29 28 27 27 26 26 26 25 25 25 25 26 26 25 24 23 20 19 20 20 20 19 18 18 18 18 19 22 24 24 21 20 19
20 20 20 19 19 19 19 18 19 20 21 21 22 23 23 23 23 23 23 22 22 23 22 23 23 23 24 24 24 25 24 21 22 22 22 21 20 20 20 21 21 21 21 21 22 23 23 23 24 24 24 25 26 27 28 28 28 27 27 27 26 26 26 25 26 27 28 28 27 26 23 21 21 21 21 21 20 21 20 19 20 21 23 25 24 22 21 21
20 20 20 20 19 19 18 18 18 18 19 20 21 21 22 22 23 23 23 23 23 23 23 23 23 22 24 23 23 24 22 21 22 21 21 20 20 20 20 20 20 20 20 20 20 21 21 22 22 23 24 24 25 26 26 27 27 26 27 27 27 26 26 26 28 28 28 29 28 26 24 22 22 22 22 22 22 24 23 22 23 23 25 25 24 22 22 21
21 21 20 20 20 19 18 18 17 18 18 19 20 21 21 22 23 23 23 23 23 23 23 23 22 23 24 23 23 23 22 21 21 21 20 19 20 19 18 18 18 18 18 18 19 19 19 20 21 23 23 24 25 25 25 26 26 26 28 28 27 26 26 27 28 29 29 28 27 26 24 24 23 23 23 24 24 26 25 24 26 25 25 26 24 23 21 20
21 21 21 20 20 19 19 18 17 17 17 17 18 20 21 22 23 23 23 23 23 23 23 22 22 23 23 22 22 22 21 21 20 20 19 19 19 18 17 16 16 16 17 17 18 18 18 19 20 21 22 23 24 25 26 27 28 28 29 28 28 27 26 27 28 29 28 27 27 25 24 24 24 23 24 26 27 28 28 26 26 25 25 25 24 22 21 20
21 21 21 21 20 20 20 19 18 18 17 17 17 18 20 22 23 23 22 23 23 22 22 22 22 22 22 22 21 21 21 20 20 19 19 18 18 17 16 15 15 15 16 17 17 16 17 18 18 19 21 24 26 27 28 29 29 29 29 28 28 27 27 28 29 29 27 27 26 25 24 24 24 24 25 27 28 29 28 25 24 22 23 24 23 22 21 21
22 22 22 22 22 21 20 20 19 18 18 17 17 18 20 22 23 22 21 22 23 22 22 22 22 22 22 21 21 21 20 20 19 19 18 18 18 17 15 15 14 15 16 16 16 15 15 15 16 19 22 24 26 26 27 28 28 29 29 28 28 27 27 28 29 29 28 27 25 24 24 24 25 25 26 27 28 27 25 22 20 20 22 23 23 22 22 22
23 23 23 23 22 22 21 21 20 19 19 18 17 18 20 21 21 21 20 21 22 21 22 22 22 22 22 21 21 21 20 20 19 19 18 18 18 17 16 16 16 16 16 16 15 14 15 17 19 22 22 22 23 24 25 27 28 28 28 27 27 27 27 28 29 29 27 25 23 22 23 24 24 24 24 25 25 24 20 19 19 20 21 23 23 23 23 21
23 24 24 24 24 23 23 22 21 20 20 19 19 19 20 21 20 20 19 20 21 20 21 22 22 22 21 21 20 20 21 21 19 18 18 18 18 18 17 17 17 16 15 15 14 14 17 19 21 21 21 21 21 22 24 25 26 26 26 26 26 26 26 27 28 27 25 23 21 20 20 22 22 22 22 22 22 20 18 19 21 22 23 24 24 24 22 20
23 24 24 25 25 24 24 24 23 21 20 19 20 21 22 21 20 19 19 18 20 20 19 21 22 22 21 20 20 21 21 20 19 18 17 17 17 17 17 17 17 15 14 14 15 17 19 19 19 19 20 20 20 21 22 22 23 23 23 23 24 24 25 26 26 25 23 21 19 18 19 20 20 19 20 20 19 17 18 19 21 22 23 22 21 20 19 18
23 24 24 25 26 25 25 25 25 23 22 20 20 22 23 22 21 20 19 18 19 19 18 20 22 21 20 19 19 21 21 19 19 18 17 17 17 17 17 17 16 14 14 15 16 18 18 17 18 19 19 19 19 19 19 19 20 20 20 21 22 23 24 25 24 23 21 20 19 19 21 21 20 19 19 18 17 17 17 17 18 19 19 18 17 17 16 16
22 23 24 25 26 26 26 26 26 25 24 22 21 22 23 23 22 20 20 19 18 19 19 19 21 21 20 19 20 21 21 20 20 19 19 18 17 16 16 16 15 15 15 16 18 18 17 17 18 18 18 18 18 18 18 17 17 18 18 19 21 22 23 24 24 22 21 20 20 21 22 22 22 21 20 19 18 18 18 17 18 19 18 17 16 16 16 14
22 22 23 24 25 26 26 26 27 27 26 24 23 22 23 23 22 21 21 20 19 20 19 19 20 19 20 20 20 21 21 21 20 20 20 19 18 17 16 15 15 16 16 17 18 18 17 17 17 17 17 17 17 16 16 16 16 16 17 18 20 21 22 23 23 22 21 21 22 23 24 24 24 23 21 20 20 20 20 20 21 20 18 17 15 14 13 12
24 24 23 24 25 26 27 27 28 28 27 25 24 24 23 23 22 21 21 20 19 19 20 20 20 19 19 20 21 22 22 21 20 21 22 21 19 18 17 16 16 17 18 18 19 18 18 18 17 17 17 17 16 16 16 17 17 17 18 19 20 21 22 23 23 23 22 22 24 25 25 25 25 24 22 22 22 23 23 23 22 20 18 16 14 12 11 11
27 26 25 25 25 25 27 28 29 28 27 27 26 25 25 24 22 22 22 20 18 18 20 20 20 20 20 19 20 23 24 23 21 22 23 21 20 19 18 18 18 19 19 19 19 19 19 19 18 18 18 17 16 17 17 17 18 18 19 20 20 22 23 23 24 24 24 24 25 27 27 27 26 25 24 24 25 25 25 25 23 20 18 16 13 11 10 11
28 28 27 26 26 25 26 29 30 28 27 28 28 27 26 26 24 23 21 19 19 20 20 20 20 21 20 20 21 23 24 24 23 23 23 21 20 20 19 20 20 21 20 19 20 20 20 19 19 19 18 17 17 17 18 18 19 19 20 20 21 22 23 24 24 25 25 26 27 28 28 28 28 27 27 26 27 27 26 25 23 20 17 14 12 11 11 13
28 29 28 27 27 27 26 29 31 29 28 28 29 28 28 27 27 25 20 18 20 22 21 20 20 20 20 21 22 23 23 24 24 25 24 22 21 21 21 21 21 21 20 20 21 21 20 20 19 19 18 17 17 17 18 18 19 19 19 20 21 22 23 24 25 26 27 27 27 28 29 29 29 29 29 28 28 28 27 25 22 19 16 14 13 13 14 15
28 29 28 27 27 27 28 29 29 29 30 30 30 30 29 29 29 26 20 18 22 23 22 21 20 20 20 20 23 24 25 25 25 25 24 23 22 21 21 21 21 21 20 19 20 21 20 20 20 20 19 19 18 19 19 19 19 19 19 20 21 22 23 24 26 27 28 28 28 29 29 30 30 30 30 29 29 29 28 26 23 20 18 17 16 16 16 16
28 28 28 27 26 27 29 30 29 29 30 31 32 32 31 32 30 24 20 21 23 23 23 23 21 21 20 20 22 23 25 26 25 25 25 24 23 22 22 22 22 22 21 20 20 21 22 22 22 21 21 21 20 20 20 19 19 18 18 19 20 22 23 25 26 27 28 28 29 30 31 31 31 31 31 31 30 30 29 27 25 23 21 20 19 19 18 18
27 28 27 27 26 26 29 31 31 30 30 32 34 34 35 34 28 22 22 23 24 24 24 23 23 22 21 21 21 22 23 24 25 25 26 26 25 24 24 23 24 23 23 22 23 24 25 25 24 23 23 22 22 21 20 20 20 20 20 21 21 23 24 25 26 27 27 28 30 31 33 33 33 32 32 32 31 30 29 28 27 25 23 22 22 22 22 22
27 28 27 27 26 26 28 30 32 32 31 32 35 37 37 33 26 22 23 25 26 25 24 24 24 24 23 22 22 23 23 23 23 24 25 25 25 25 24 23 24 24 24 24 25 26 26 26 26 25 25 24 23 22 22 22 22 23 23 23 23 23 24 26 27 27 28 28 29 31 34 35 33 32 32 32 32 31 31 30 29 28 26 26 26 26 26 26
28 29 28 28 28 27 28 30 33 34 33 33 36 39 36 30 26 25 24 26 27 26 25 25 25 25 25 24 23 24 24 24 24 24 25 25 25 25 24 24 24 25 25 24 25 26 25 26 27 27 27 27 26 25 25 25 24 25 25 24 23 23 24 25 27 28 28 29 29 30 32 34 34 33 33 33 33 32 32 31 31 31 30 31 31 30 30 30
28 30 30 29 29 29 29 30 32 35 34 34 37 37 33 31 29 28 27 27 27 27 26 26 26 26 26 25 25 25 25 25 26 26 26 26 26 26 26 25 26 26 25 25 25 25 25 25 27 28 29 29 28 27 27 27 26 26 26 24 23 24 25 25 25 26 28 28 29 28 29 31 32 33 34 34 34 34 34 34 35 35 35 34 33 32 31 31
28 29 30 30 29 30 31 32 33 35 35 37 37 35 32 33 32 30 29 29 28 28 28 28 28 27 26 26 26 26 27 27 28 27 27 27 27 27 26 26 27 27 27 27 26 26 26 25 25 27 27 28 29 28 29 29 28 27 26 24 24 24 24 24 23 24 25 26 27 28 28 29 30 31 32 32 32 33 34 34 35 35 33 32 31 30 30 29
27 28 29 30 30 30 31 33 35 36 37 37 36 33 31 32 32 32 32 31 31 30 29 30 30 28 28 27 27 27 27 27 28 28 28 29 29 28 27 27 28 28 29 28 28 27 26 25 25 25 26 27 29 30 30 30 28 27 26 25 25 25 23 23 22 22 23 23 25 26 27 27 28 28 27 26 26 27 28 28 29 29 29 29 28 27 27 26
27 28 28 29 30 30 31 34 36 38 39 37 35 33 32 31 32 33 34 34 34 33 32 31 31 30 29 28 27 27 27 27 28 29 29 30 30 29 28 28 30 31 31 31 30 29 28 26 26 26 26 27 29 31 31 31 29 28 27 25 25 24 23 24 24 23 23 24 25 25 26 26 25 24 23 22 21 22 22 23 24 25 26 27 26 24 24 25
28 29 29 29 29 30 30 33 36 39 39 37 35 34 33 32 32 33 36 37 37 36 34 33 33 32 30 29 28 28 28 28 28 29 29 30 30 30 30 29 30 31 32 32 32 31 30 29 27 27 28 28 29 30 31 32 31 29 28 26 24 24 23 23 24 24 25 25 25 25 25 24 22 22 22 21 20 19 19 20 21 22 24 24 22 21 22 24
29 29 28 28 28 28 29 31 34 37 40 38 35 35 34 34 33 35 37 39 38 37 36 35 34 33 32 31 30 29 29 28 28 29 29 29 29 30 31 30 29 30 31 32 33 33 32 29 27 27 28 28 29 30 30 31 31 29 28 27 27 26 25 24 24 25 25 25 25 24 23 23 21 21 21 19 18 17 16 17 18 20 22 22 21 20 22 25
27 25 24 23 23 24 25 28 30 34 37 38 35 35 35 35 35 36 38 39 38 37 36 35 35 34 33 32 31 31 29 29 29 29 29 29 29 30 32 32 31 31 31 32 33 34 33 32 29 28 28 28 29 29 30 31 31 29 28 28 27 28 27 26 24 24 24 25 24 24 23 22 21 20 19 18 16 15 15 15 17 18 20 21 21 21 23 25
23 20 19 18 18 20 21 24 26 29 33 35 34 34 35 36 36 37 38 39 37 35 34 34 34 34 34 34 33 32 31 30 30 30 30 29 29 30 30 30 30 31 32 32 32 32 32 33 32 31 29 29 30 31 31 31 31 29 28 28 27 27 26 26 25 24 25 26 25 25 24 22 21 20 19 18 17 16 16 16 17 17 18 19 19 20 21 23
21 18 17 17 18 19 19 20 22 25 28 31 32 32 33 35 36 37 38 38 37 35 33 32 33 34 34 35 34 33 32 31 31 31 31 31 30 30 29 28 28 27 28 29 29 29 30 32 33 32 31 30 30 29 29 29 30 29 28 28 28 27 27 27 26 26 26 26 26 26 25 23 21 21 21 20 19 18 17 17 18 18 19 19 20 20 20 21
22 19 18 19 20 19 18 18 18 20 23 27 29 29 31 33 34 35 36 37 37 36 34 32 31 32 34 35 35 34 34 33 32 32 32 32 31 31 30 29 29 28 27 26 26 26 28 31 33 32 32 32 31 29 27 28 29 29 29 29 28 29 29 29 29 29 28 27 28 28 26 24 23 23 23 22 21 20 18 18 19 19 20 20 21 21 21 21
24 21 19 20 21 18 15 14 14 15 18 23 26 26 28 29 31 31 33 35 35 35 34 32 31 31 32 34 35 35 35 34 34 34 34 33 32 31 31 30 29 29 28 27 27 26 26 30 32 34 35 35 35 34 33 32 32 32 32 31 31 31 31 31 31 31 29 29 29 29 28 27 26 26 26 25 23 22 21 20 20 21 21 21 22 23 22 22
24 22 20 21 21 15 10 12 10 8 13 21 23 23 25 26 27 28 29 31 33 33 32 31 30 30 31 33 34 34 35 35 35 35 35 35 34 33 32 31 30 29 29 28 29 28 26 26 27 31 36 38 38 37 37 37 36 36 35 35 34 34 33 33 33 33 32 31 31 31 31 30 29 28 28 27 26 24 23 22 22 22 22 23 23 24 24 24
24 23 22 21 19 12 8 15 10 0 4 17 21 20 23 24 25 25 26 28 30 31 31 30 29 28 29 31 33 34 35 36 36 36 36 36 36 35 34 33 32 31 31 30 29 28 27 26 23 24 30 34 37 39 40 40 39 38 38 38 37 37 36 36 36 36 35 34 34 34 34 33 32 31 29 29 28 27 26 25 25 25 25 24 24 25 26 26
25 24 23 22 17 9 7 17 13 2 6 9 17 18 20 22 23 24 25 27 29 29 30 30 28 28 28 29 32 33 35 36 36 37 36 36 36 36 36 35 33 32 31 31 31 29 28 28 27 25 26 27 29 32 35 36 36 36 38 40 40 41 40 40 40 39 39 38 37 36 36 36 36 35 33 32 31 30 29 28 28 28 28 27 27 27 28 29
25 25 25 23 18 10 3 13 15 4 10 9 9 14 18 18 19 21 22 24 27 28 29 29 29 28 27 28 30 31 32 34 36 37 37 37 37 37 36 36 35 34 33 32 32 32 30 29 29 29 30 29 27 26 26 27 28 29 31 34 37 40 42 42 42 42 41 40 39 38 38 39 39 39 38 37 35 33 32 31 31 31 32 32 31 31 31 32
25 25 25 24 19 13 4 8 16 11 6 10 8 7 13 18 18 18 19 22 24 26 28 28 28 28 27 27 28 29 30 31 33 34 36 36 37 37 36 36 36 36 35 33 32 31 31 30 29 30 32 33 32 31 28 27 26 26 26 27 29 32 36 38 39 41 42 42 42 41 40 41 42 41 41 40 38 36 34 34 33 33 33 34 34 33 33 33
Wind_Direction
277 275 271 268 267 267 268 268 268 268 267 267 267 267 267 266 266 265 264 263 261 259 256 254 252 250 248 247 247 247 248 248 248 249 250 250 250 250 250 249 250 250 250 250 251 252 252 252 252 251 250 251 251 251 251 251 251 250 250 248 244 239 233 228 230 238 245 245 244 243 243 244 242 240 241 243 245 245 245 245 246 247 249 249 250 252 255 258
277 276 273 269 266 264 264 264 264 264 264 264 264 264 265 265 265 265 265 263 262 260 258 255 253 251 250 248 247 247 247 247 248 249 250 250 251 251 251 251 250 250 250 251 251 252 253 254 254 253 251 251 251 252 252 251 251 251 249 244 239 235 232 229 231 239 246 245 245 245 244 243 242 241 241 242 244 247 246 247 247 246 247 249 252 256 260 264
277 276 275 272 268 263 261 260 261 261 261 261 262 262 262 263 263 264 263 262 261 260 258 255 253 252 251 250 248 248 247 247 248 249 250 251 252 252 252 252 252 252 253 253 253 253 253 254 254 253 251 250 250 250 250 250 249 249 246 239 235 236 234 229 231 241 247 247 248 249 247 244 242 243 243 243 245 248 248 248 248 247 249 251 256 261 265 269
277 275 274 273 271 267 262 259 258 258 259 259 260 260 261 261 261 261 261 260 259 257 256 254 253 252 251 251 250 249 248 248 248 249 250 251 252 253 253 254 253 254 254 255 254 253 252 252 252 252 250 249 249 248 248 247 247 246 242 234 231 235 235 231 234 244 248 248 249 250 250 248 245 247 248 247 248 250 250 250 250 250 252 256 261 266 270 275
279 276 274 273 272 270 265 261 258 257 257 258 258 259 259 259 259 260 259 258 257 256 255 254 252 250 250 250 250 250 249 249 249 249 250 251 252 252 253 254 255 255 255 255 254 252 251 250 249 249 248 248 248 247 247 246 244 241 237 229 228 234 235 235 238 243 247 247 249 251 255 255 254 254 253 251 250 251 252 252 253 255 258 263 267 271 276 283
280 277 275 273 271 270 268 264 260 257 256 256 257 257 258 258 258 258 258 258 257 256 256 255 253 251 249 248 249 250 250 249 249 249 250 251 252 252 253 254 254 254 255 254 253 252 250 248 247 246 245 245 244 245 244 243 242 237 232 226 226 232 233 236 239 240 244 248 251 255 258 259 258 256 253 252 251 252 254 256 258 261 265 269 270 274 280 284
281 278 275 273 272 270 268 266 262 259 257 256 256 256 257 257 257 257 257 257 257 257 257 257 255 253 250 247 247 249 250 250 250 250 251 252 253 253 253 253 253 253 253 253 252 251 249 247 244 243 242 241 241 241 241 241 239 234 228 225 226 228 230 235 238 238 242 248 253 256 257 257 256 255 253 253 253 255 257 259 262 263 265 266 269 275 279 283
285 280 276 274 272 271 269 266 264 261 258 257 256 256 256 257 257 257 257 257 257 258 258 258 258 256 252 249 248 249 250 251 252 252 252 253 254 254 253 253 253 252 252 251 251 249 247 245 243 242 240 239 238 237 237 238 236 231 225 223 225 225 230 237 238 235 238 245 253 256 254 254 254 254 254 255 257 258 259 261 263 262 260 262 269 274 277 280
289 285 280 276 273 272 271 268 264 262 260 258 257 257 257 257 258 258 258 257 257 258 259 260 260 258 255 252 250 250 250 251 252 253 253 253 254 254 255 254 254 252 251 250 248 247 244 242 240 239 238 237 236 236 236 236 233 229 225 223 224 225 231 239 239 236 237 241 248 253 252 252 249 250 253 256 258 258 259 261 261 259 257 261 268 271 275 276
289 289 287 282 277 273 272 270 266 262 260 259 258 257 258 258 258 259 259 259 258 259 260 261 260 259 256 253 252 251 251 251 252 252 252 252 252 253 254 254 254 253 251 249 246 243 241 239 237 236 236 235 235 236 236 235 232 228 226 225 225 227 232 238 240 238 237 237 240 243 246 248 246 247 252 255 256 256 258 259 259 259 259 263 268 269 270 270
286 288 289 288 283 277 273 272 269 263 259 258 257 257 257 258 258 259 260 260 261 261 261 260 259 257 255 253 252 252 252 252 252 252 251 251 251 252 253 254 254 253 251 248 244 241 240 238 237 236 235 235 234 235 236 235 233 229 228 228 225 227 232 236 239 239 237 237 237 237 240 244 246 248 251 253 254 253 254 256 257 259 262 263 266 267 266 267
286 286 286 288 288 284 277 273 270 266 260 256 256 256 256 257 258 259 260 261 261 261 261 259 257 255 254 253 251 251 252 251 251 251 251 251 251 252 253 254 254 254 251 248 245 242 241 239 238 237 237 237 235 235 235 235 234 231 229 229 228 228 230 233 237 239 238 238 237 237 239 241 245 247 246 249 251 251 250 252 254 257 258 258 261 264 264 265
286 286 284 285 288 288 284 277 272 268 261 256 254 254 254 256 257 258 259 259 259 259 258 256 254 252 252 251 250 251 250 250 250 251 251 251 252 253 253 255 254 253 251 249 247 244 242 241 240 239 238 237 236 235 236 235 234 232 229 229 230 230 230 231 235 238 240 240 239 238 238 237 238 241 241 244 248 249 248 245 246 248 249 252 257 261 262 262
286 287 285 283 284 288 288 283 276 270 263 257 253 252 253 254 255 256 256 257 257 256 255 253 251 250 250 250 249 249 248 249 250 250 251 251 252 253 254 255 255 253 252 249 247 244 242 240 239 239 237 236 235 235 235 234 233 231 230 229 230 231 231 232 234 238 240 241 240 237 236 233 232 234 237 241 243 243 241 236 234 237 243 249 254 258 258 258
285 287 286 283 282 285 287 286 280 272 265 258 253 251 251 252 253 254 254 254 254 254 252 251 250 249 249 248 247 247 246 247 248 249 250 251 252 254 255 255 254 252 250 248 245 242 239 237 234 234 234 233 233 233 233 233 232 230 230 230 230 232 233 233 235 237 240 242 241 240 239 235 232 234 236 238 240 237 233 230 231 235 242 249 252 255 256 256
283 286 286 285 283 282 284 284 281 275 267 260 254 251 250 250 251 252 252 252 252 252 250 249 249 248 248 247 246 246 245 245 247 247 248 249 250 252 253 253 251 249 247 245 243 240 237 234 231 230 229 230 230 230 231 231 230 229 230 231 231 232 234 234 236 237 239 242 243 243 243 240 237 238 240 241 242 240 234 230 235 240 245 249 251 252 252 252
281 284 285 285 284 282 281 281 280 276 270 262 256 252 250 249 250 250 251 250 250 250 249 249 248 247 248 247 246 246 244 243 245 245 245 245 246 247 250 250 249 247 245 244 242 239 236 233 230 228 225 225 225 227 228 229 229 228 229 231 231 233 235 235 236 237 238 241 243 244 243 242 241 243 246 246 247 246 239 234 238 243 245 247 247 248 248 249
279 281 283 284 284 282 280 278 277 275 271 264 257 253 251 251 250 249 249 250 250 249 249 249 248 247 248 246 246 246 244 241 242 243 242 241 241 243 246 248 246 244 244 242 240 237 233 230 229 228 225 223 222 222 224 226 226 225 227 229 230 230 232 234 236 236 237 239 241 242 242 243 242 244 248 250 249 249 244 236 237 241 243 244 244 244 245 245
276 277 279 282 283 283 280 276 274 272 271 267 260 255 253 252 251 249 248 249 249 248 249 248 247 247 247 246 246 245 242 240 241 241 239 239 240 240 242 244 243 241 240 238 236 233 229 227 226 227 225 223 222 220 221 222 222 223 224 227 229 228 229 232 235 236 237 239 240 241 243 245 246 246 248 250 249 249 247 240 237 240 242 244 243 240 239 239
274 274 275 277 280 281 281 277 272 270 268 266 262 258 255 253 251 249 248 249 249 249 249 248 247 247 247 246 244 243 240 238 238 237 237 237 237 238 238 240 241 240 239 237 233 230 227 225 224 225 224 223 223 221 221 222 222 224 225 226 228 228 228 231 235 238 238 239 241 243 246 248 248 246 245 246 246 247 247 244 241 241 241 242 238 234 232 233
272 271 271 272 274 277 279 278 274 269 266 264 262 259 256 253 251 250 250 251 249 248 248 247 246 247 246 244 240 238 238 236 235 234 233 233 233 234 234 234 236 237 236 235 231 227 225 221 218 220 221 222 224 225 225 226 226 226 227 227 228 228 228 231 235 239 239 240 242 244 246 247 246 244 242 242 243 243 243 241 237 234 233 233 230 227 229 232
270 269 269 269 270 272 275 276 275 271 267 263 261 259 257 255 253 252 252 253 250 247 247 246 245 245 244 242 238 235 235 236 235 234 231 230 230 230 230 229 231 232 233 232 228 224 219 215 215 217 218 219 223 226 227 229 230 230 231 230 230 229 230 233 237 240 241 242 244 245 245 245 243 241 238 237 237 237 235 229 221 219 222 225 226 227 228 231
270 269 267 267 267 268 269 272 273 273 269 264 262 259 257 255 254 252 251 253 253 247 246 246 244 244 242 238 236 233 233 234 235 234 232 231 230 230 230 229 229 230 231 230 226 221 220 220 220 220 219 219 221 224 227 230 232 233 233 232 232 231 232 235 238 241 242 242 241 239 238 238 236 233 231 231 232 231 228 223 217 214 218 222 225 226 228 231
272 270 268 266 265 265 265 267 269 270 270 267 263 261 258 255 253 252 250 250 252 248 244 245 244 242 239 235 232 231 231 233 234 234 232 231 231 231 231 230 230 229 229 231 228 225 226 227 226 224 221 221 222 224 227 230 233 235 235 234 233 231 232 235 239 240 240 238 234 228 226 228 227 226 226 227 228 227 224 224 224 222 223 226 228 231 233 234
274 272 270 267 265 264 263 263 265 266 267 267 265 263 260 257 254 253 250 248 251 250 243 242 242 240 237 233 229 229 230 230 232 232 231 231 231 230 231 231 230 229 229 232 232 232 233 231 229 228 226 225 225 225 227 230 234 236 236 234 231 229 229 232 236 238 236 233 227 219 217 220 222 220 221 223 223 224 225 225 224 223 224 226 230 232 231 228
276 274 272 269 267 264 262 261 262 262 262 263 264 264 262 259 256 254 252 247 248 248 243 240 240 239 234 228 227 228 228 227 228 230 231 231 231 231 233 232 229 228 229 232 235 236 236 234 232 231 230 228 228 227 225 226 230 233 232 229 227 226 226 229 233 234 231 226 221 216 214 217 221 219 219 220 219 220 221 218 215 216 219 223 226 228 226 222
276 275 273 271 268 266 263 260 259 259 259 259 259 261 262 260 256 254 253 249 246 246 244 241 239 238 234 229 227 228 228 226 227 229 230 230 229 229 231 231 229 229 231 235 238 238 237 236 234 233 231 229 228 227 225 224 226 228 226 225 226 227 225 227 230 231 228 223 219 217 215 216 222 222 220 219 218 217 216 212 212 215 219 224 226 227 228 230
275 273 272 270 268 266 264 261 258 257 257 257 255 256 258 259 257 253 252 251 248 245 243 240 237 235 234 232 229 228 229 228 225 227 229 229 228 227 225 224 224 227 229 232 235 235 235 236 235 233 231 228 227 227 226 225 224 224 225 225 227 227 225 226 228 228 228 224 220 219 218 218 222 224 221 219 218 216 214 213 214 218 222 224 225 227 235 245
275 273 270 269 267 265 263 261 258 256 254 255 254 253 254 256 256 253 250 250 248 245 242 239 237 234 232 230 229 229 230 229 226 228 231 230 230 228 225 223 224 226 228 231 234 234 234 235 235 234 231 228 226 227 228 228 225 225 227 227 226 226 226 226 226 226 227 225 222 222 221 220 222 225 224 222 222 220 219 219 222 225 224 222 225 233 245 258
274 272 269 267 266 264 262 260 258 255 253 253 252 251 250 251 253 252 249 248 247 245 244 241 238 234 231 228 228 229 230 230 229 230 232 231 230 229 227 227 229 229 229 232 237 239 238 237 236 235 233 231 229 228 230 230 228 228 230 230 229 229 229 229 227 227 226 226 225 225 226 225 225 227 227 224 224 225 227 228 230 231 230 229 233 243 255 265
275 273 270 267 264 262 259 258 258 256 252 251 251 250 248 248 248 248 248 247 246 244 243 241 237 234 231 227 227 228 229 228 229 231 232 232 232 233 232 233 234 234 233 234 238 242 242 242 240 238 237 235 234 233 234 234 233 234 235 234 233 233 233 233 231 231 229 227 227 228 230 231 229 230 230 227 227 229 232 235 237 237 237 239 246 255 263 268
276 274 271 267 263 261 258 257 257 255 251 250 249 248 247 246 245 245 245 245 245 243 241 239 236 232 228 226 227 228 228 228 228 230 231 231 232 234 235 236 237 238 238 237 240 244 245 245 243 241 240 239 237 237 237 236 236 236 237 237 236 236 237 237 235 235 234 231 229 230 231 232 232 233 233 231 232 234 235 238 241 242 242 243 247 256 263 266
278 276 274 269 263 259 257 256 255 253 250 248 248 247 246 245 244 243 241 241 243 242 240 238 236 232 227 225 228 230 230 231 230 230 231 231 231 232 233 235 236 236 235 233 235 239 242 241 239 239 239 238 238 239 240 242 243 242 243 242 241 241 241 241 240 240 240 236 232 231 231 231 232 235 236 235 235 237 238 240 242 244 246 247 250 257 260 263
280 278 276 273 266 259 256 254 253 251 248 246 246 246 245 245 244 240 237 238 240 240 240 239 236 234 229 226 228 230 231 232 232 232 234 234 233 233 234 236 238 238 236 232 229 232 235 236 236 237 238 239 240 240 241 243 244 244 244 243 242 243 243 245 245 245 245 241 237 234 233 233 232 234 237 239 239 240 240 242 243 244 245 247 251 259 263 266
282 280 278 275 270 263 256 253 251 249 245 243 244 244 245 245 244 239 235 236 238 238 238 238 237 235 232 228 228 230 231 232 233 234 236 237 236 235 234 234 237 238 237 235 232 233 234 235 237 238 238 239 239 240 240 240 242 243 244 245 245 246 247 247 248 247 246 244 240 236 235 236 235 234 237 240 242 243 244 245 247 248 248 249 252 258 262 265
283 281 279 275 271 265 259 254 251 248 245 242 242 244 245 245 242 237 233 234 236 237 236 236 236 235 234 230 229 230 230 231 234 235 236 239 239 237 233 230 232 234 235 235 236 237 236 235 235 236 237 237 236 237 240 240 241 243 246 248 249 250 249 246 246 246 246 245 243 240 238 238 237 235 236 238 240 243 245 247 250 252 254 256 257 260 261 262
285 283 280 276 271 266 260 255 251 249 245 242 242 243 243 240 238 235 232 232 234 234 233 234 234 234 234 233 231 231 230 229 231 235 236 238 239 239 237 233 231 230 230 231 232 234 234 232 233 233 234 236 235 235 238 239 238 239 244 247 247 247 247 244 243 244 244 243 243 242 240 239 239 238 238 238 239 242 244 247 251 254 257 259 260 261 262 263
287 284 281 277 271 265 260 254 251 249 246 242 241 241 239 236 235 234 232 231 231 231 231 231 232 232 232 233 231 232 232 230 230 232 233 235 237 238 239 236 234 231 228 229 230 231 232 231 232 232 230 231 233 232 233 236 237 238 241 243 242 243 245 245 245 246 246 245 244 242 241 240 240 240 241 242 242 243 246 248 252 255 258 260 261 261 261 261
291 287 283 279 273 265 259 253 249 247 245 242 240 239 237 234 232 232 231 231 230 229 228 229 231 231 230 231 232 232 233 233 233 232 231 232 234 235 235 235 234 231 228 229 231 232 232 230 231 233 230 229 231 231 230 233 237 239 240 240 240 240 242 245 246 247 248 248 247 246 244 244 244 244 245 246 246 247 249 251 255 258 260 261 261 260 258 255
296 291 286 281 276 268 259 253 248 245 244 243 240 237 235 232 229 229 230 230 229 228 227 227 229 230 230 231 232 233 233 233 234 234 232 232 233 233 232 232 233 232 229 228 230 231 233 232 232 234 234 231 231 232 232 232 234 239 241 241 241 241 241 244 245 245 247 248 249 249 249 249 250 251 251 252 252 254 256 257 259 259 259 259 257 254 252 249
301 295 290 284 278 270 261 253 247 244 242 240 237 234 232 228 225 225 227 228 228 227 225 225 227 228 229 230 232 233 234 232 233 235 234 233 233 233 232 232 233 234 232 230 231 232 234 235 234 236 237 235 234 234 234 234 234 237 241 243 242 242 242 245 247 247 247 248 249 250 252 253 254 255 256 257 258 258 257 257 257 256 254 253 250 247 245 242
306 302 297 289 279 269 260 252 246 242 239 236 234 232 229 226 222 221 224 227 227 227 225 225 226 227 228 229 231 233 235 234 234 235 235 236 235 234 234 234 234 235 234 233 233 234 235 236 234 235 237 236 234 233 232 233 234 235 238 240 240 241 242 244 247 248 248 248 249 250 252 253 253 255 257 257 257 254 252 252 253 254 252 248 243 238 235 232
313 311 308 299 285 270 258 250 246 241 237 233 231 229 227 225 221 220 223 226 227 227 226 225 226 226 227 229 231 233 234 235 236 236 237 237 238 238 238 236 234 234 234 234 235 235 235 235 232 234 237 237 235 233 232 233 234 233 235 237 239 241 243 245 246 247 248 248 248 249 250 250 251 253 255 253 251 248 249 251 250 250 250 247 243 239 236 233
320 318 318 312 296 277 262 252 247 242 236 231 228 227 226 225 222 220 222 226 228 228 227 227 227 227 227 228 230 232 233 235 237 238 238 238 239 241 242 241 239 237 234 232 234 236 236 235 233 234 237 238 237 235 234 234 234 234 235 236 238 240 242 245 245 245 246 247 247 247 247 247 248 249 250 250 251 252 251 248 245 244 245 245 245 245 243 241
325 318 317 314 304 289 271 258 251 243 235 229 225 224 225 224 223 222 223 226 228 229 229 228 228 228 228 229 229 231 233 234 235 238 239 240 240 242 243 244 245 244 240 235 235 236 238 237 236 238 241 242 243 243 241 240 239 239 239 239 239 240 241 243 244 245 246 247 248 248 246 246 246 246 247 248 253 256 253 244 239 240 242 243 245 246 246 246
329 321 314 312 310 297 274 260 254 244 233 225 221 222 223 224 224 223 224 226 229 231 231 230 229 229 229 230 230 230 232 233 234 236 239 241 242 242 243 244 246 248 248 246 245 244 244 243 240 239 241 241 243 243 242 242 243 243 242 241 241 241 241 241 242 244 246 247 247 247 245 244 243 243 244 247 252 256 251 242 237 237 239 241 244 246 247 247
336 328 319 316 315 302 272 251 246 242 232 223 219 219 221 223 224 225 225 227 229 231 232 232 231 230 230 231 231 231 232 233 234 235 238 240 242 243 244 245 247 249 250 252 253 252 254 253 247 242 240 237 236 237 238 237 238 239 239 238 237 238 239 240 240 241 243 243 243 244 245 245 244 243 242 245 249 252 251 246 241 238 238 241 244 246 246 246
343 337 329 325 321 306 259 218 217 235 231 221 217 217 220 222 224 225 225 227 228 230 232 232 231 230 231 231 231 231 232 233 235 236 237 239 241 242 243 244 246 247 248 250 252 251 253 258 257 252 247 241 237 238 239 239 238 239 239 239 238 238 238 238 239 240 241 242 243 245 246 247 245 244 243 244 246 248 250 249 246 243 243 244 245 245 245 247
350 346 340 337 332 313 232 199 197 238 219 214 214 215 218 221 223 224 223 225 228 229 230 231 231 231 232 232 231 232 233 234 236 237 238 239 242 244 245 245 245 246 248 249 250 249 249 253 255 254 252 247 241 239 240 240 240 241 242 242 241 241 241 240 240 239 239 240 243 246 248 248 247 245 243 243 244 246 247 248 248 248 248 248 249 248 249 251
354 354 351 350 349 332 234 206 206 74 76 187 211 215 217 220 223 225 223 223 227 229 230 230 231 231 232 233 233 232 233 235 237 238 240 241 243 246 249 250 249 249 250 252 252 251 250 251 249 248 251 252 248 244 243 242 243 244 245 246 245 242 241 241 241 241 241 240 241 245 248 249 250 248 246 243 242 244 246 247 248 249 251 253 254 253 253 254
357 359 359 0 4 359 275 213 211 177 86 114 189 213 218 218 217 222 226 225 227 230 231 231 232 232 233 234 235 234 234 237 239 240 242 243 245 247 250 252 254 254 255 257 259 259 259 257 254 252 252 255 255 253 250 248 247 247 249 251 251 247 243 241 241 242 242 241 242 244 246 248 248 248 247 245 243 242 243 246 248 251 253 255 256 256 255 256
2 4 6 7 11 12 3 211 214 212 131 106 116 170 207 216 216 219 226 227 228 230 231 232 233 234 233 234 236 234 233 236 239 241 243 245 246 248 250 252 255 256 257 259 261 262 263 262 259 256 255 257 258 258 257 254 250 248 248 250 253 252 248 244 242 243 244 245 246 246 246 247 247 246 244 243 241 240 241 244 248 251 254 256 258 258 259 259
Height
5743 5743 5743 5743 5744 5744 5744 5744 5745 5745 5745 5746 5746 5746 5746 5747 5747 5747 5748 5749 5750 5750 5751 5752 5753 5753 5754 5755 5756 5757 5758 5759 5760 5761 5762 5763 5765 5766 5767 5768 5769 5770 5771 5773 5774 5775 5776 5777 5778 5780 5781 5782 5783 5784 5786 5787 5788 5789 5790 5791 5792 5793 5793 5794 5794 5795 5797 5799 5800 5801 5802 5803 5803 5804 5804 5805 5805 5806 5808 5809 5810 5811 5811 5812 5813 5814 5814 5815
5740 5740 5740 5740 5740 5741 5741 5742 5742 5742 5743 5743 5744 5744 5744 5745 5745 5745 5746 5747 5747 5748 5749 5749 5750 5751 5752 5753 5754 5755 5755 5756 5757 5758 5759 5760 5762 5763 5764 5765 5766 5768 5769 5770 5771 5773 5774 5775 5776 5777 5779 5780 5781 5782 5783 5785 5786 5787 5788 5789 5789 5790 5791 5791 5792 5793 5795 5796 5797 5799 5800 5801 5801 5802 5803 5804 5804 5805 5806 5807 5808 5808 5809 5810 5811 5812 5813 5814
5737 5737 5737 5737 5737 5738 5738 5739 5739 5740 5740 5741 5741 5741 5742 5742 5743 5743 5744 5745 5745 5746 5746 5747 5748 5749 5750 5750 5751 5752 5753 5754 5755 5756 5757 5758 5759 5760 5761 5762 5764 5765 5766 5767 5769 5770 5771 5772 5773 5774 5776 5777 5778 5779 5781 5782 5783 5784 5786 5787 5787 5788 5789 5789 5790 5791 5793 5795 5796 5796 5797 5799 5799 5800 5802 5802 5803 5804 5805 5805 5806 5807 5808 5809 5810 5811 5812 5813
5734 5734 5734 5734 5734 5735 5735 5736 5736 5737 5737 5738 5738 5739 5739 5740 5740 5741 5742 5742 5743 5744 5744 5745 5746 5746 5747 5748 5749 5750 5750 5751 5752 5753 5755 5756 5756 5757 5759 5760 5761 5762 5763 5765 5766 5767 5768 5769 5771 5772 5773 5774 5775 5777 5778 5779 5781 5782 5783 5784 5785 5786 5786 5787 5788 5790 5791 5793 5794 5794 5795 5797 5798 5799 5800 5801 5802 5802 5803 5804 5804 5805 5806 5807 5809 5810 5811 5812
5732 5732 5732 5731 5732 5732 5732 5732 5733 5734 5734 5735 5735 5736 5737 5737 5738 5739 5739 5740 5741 5741 5742 5743 5743 5744 5745 5746 5746 5747 5748 5749 5750 5751 5752 5753 5754 5755 5756 5757 5758 5759 5760 5762 5763 5764 5765 5767 5768 5769 5770 5772 5773 5774 5775 5776 5778 5779 5781 5782 5783 5784 5784 5786 5786 5788 5789 5790 5792 5793 5794 5795 5797 5798 5799 5800 5800 5801 5801 5802 5803 5804 5805 5807 5808 5809 5810 5810
5729 5729 5729 5729 5729 5729 5729 5729 5730 5730 5731 5732 5732 5733 5734 5734 5735 5736 5737 5738 5738 5739 5740 5740 5741 5742 5742 5743 5744 5745 5745 5746 5747 5748 5750 5750 5751 5752 5753 5754 5756 5757 5758 5759 5760 5761 5762 5764 5765 5766 5767 5769 5770 5771 5772 5773 5775 5777 5778 5780 5781 5781 5782 5783 5784 5786 5788 5789 5790 5792 5792 5794 5795 5796 5797 5797 5798 5799 5800 5801 5802 5803 5805 5807 5807 5807 5808 5808
5726 5726 5726 5726 5726 5726 5726 5726 5726 5727 5728 5728 5729 5730 5731 5731 5732 5733 5734 5735 5735 5736 5737 5738 5738 5739 5740 5740 5741 5742 5742 5743 5745 5746 5747 5748 5749 5750 5751 5752 5753 5754 5755 5756 5757 5758 5759 5761 5762 5763 5764 5765 5767 5768 5769 5770 5772 5774 5776 5777 5778 5779 5780 5780 5782 5784 5786 5787 5789 5790 5791 5792 5793 5794 5794 5795 5796 5798 5799 5800 5801 5803 5805 5805 5805 5805 5805 5805
5724 5724 5723 5723 5723 5723 5723 5723 5723 5724 5724 5725 5726 5727 5728 5728 5729 5730 5731 5732 5733 5733 5734 5735 5736 5736 5737 5738 5738 5739 5739 5741 5742 5743 5744 5745 5746 5747 5748 5749 5750 5751 5752 5753 5754 5755 5756 5757 5759 5760 5761 5762 5763 5765 5766 5767 5769 5772 5774 5775 5776 5777 5777 5778 5780 5783 5785 5786 5786 5788 5789 5790 5790 5791 5792 5793 5794 5796 5797 5798 5800 5801 5803 5803 5803 5803 5803 5803
5722 5721 5721 5720 5720 5720 5720 5720 5720 5720 5721 5722 5723 5724 5725 5725 5726 5727 5728 5729 5730 5730 5731 5732 5733 5733 5734 5735 5735 5736 5736 5738 5739 5740 5741 5742 5743 5744 5745 5746 5747 5748 5749 5750 5751 5752 5753 5754 5755 5756 5757 5759 5760 5761 5763 5764 5766 5769 5771 5772 5773 5774 5775 5776 5779 5781 5783 5784 5785 5786 5787 5787 5788 5789 5790 5791 5793 5794 5795 5796 5798 5799 5800 5801 5801 5801 5801 5801
5720 5719 5719 5718 5718 5717 5717 5717 5717 5717 5718 5719 5720 5721 5721 5722 5723 5724 5725 5726 5726 5727 5728 5729 5730 5730 5731 5732 5732 5733 5733 5735 5736 5737 5739 5740 5741 5741 5742 5743 5744 5745 5746 5747 5748 5748 5749 5750 5751 5752 5754 5755 5757 5758 5760 5762 5764 5766 5768 5769 5771 5773 5774 5775 5777 5779 5781 5782 5783 5784 5785 5785 5786 5787 5788 5789 5790 5791 5793 5795 5796 5797 5798 5799 5799 5799 5799 5799
5718 5717 5716 5716 5715 5714 5714 5714 5714 5714 5715 5716 5716 5717 5718 5719 5720 5721 5722 5723 5723 5724 5725 5726 5727 5727 5728 5729 5729 5730 5731 5732 5733 5734 5736 5737 5738 5738 5739 5740 5740 5741 5742 5743 5744 5745 5746 5747 5748 5750 5751 5752 5754 5756 5757 5759 5761 5764 5766 5768 5769 5771 5772 5774 5775 5777 5778 5780 5781 5782 5782 5783 5784 5785 5786 5787 5788 5789 5791 5792 5794 5795 5796 5797 5797 5797 5797 5798
5715 5715 5714 5713 5713 5712 5711 5711 5711 5711 5712 5712 5713 5714 5715 5716 5717 5718 5719 5720 5720 5721 5722 5723 5723 5724 5725 5725 5726 5727 5728 5728 5730 5731 5733 5734 5734 5735 5736 5737 5737 5738 5739 5740 5741 5742 5743 5744 5745 5747 5748 5750 5752 5753 5755 5757 5759 5761 5763 5765 5767 5769 5770 5772 5773 5774 5776 5777 5779 5780 5780 5781 5783 5783 5784 5785 5785 5787 5788 5790 5791 5793 5794 5794 5794 5794 5795 5796
5713 5712 5712 5711 5710 5710 5709 5709 5708 5709 5709 5709 5710 5711 5712 5713 5714 5715 5716 5717 5717 5718 5719 5719 5720 5721 5722 5722 5723 5724 5724 5725 5727 5729 5730 5731 5731 5732 5733 5734 5734 5735 5735 5737 5738 5739 5740 5741 5743 5744 5746 5748 5749 5751 5752 5754 5756 5759 5761 5763 5764 5766 5768 5770 5771 5772 5773 5774 5776 5777 5778 5779 5781 5781 5782 5783 5783 5785 5786 5788 5789 5791 5792 5792 5792 5792 5793 5794
5710 5710 5709 5709 5708 5707 5707 5706 5706 5706 5706 5706 5707 5708 5709 5710 5712 5712 5713 5714 5715 5715 5716 5717 5717 5718 5718 5719 5720 5721 5721 5723 5725 5726 5727 5728 5728 5729 5730 5731 5731 5732 5733 5734 5735 5736 5737 5739 5741 5742 5744 5745 5747 5748 5750 5751 5754 5756 5758 5760 5762 5764 5766 5767 5768 5769 5770 5771 5773 5774 5775 5777 5778 5779 5780 5780 5781 5783 5784 5786 5787 5789 5789 5789 5789 5790 5791 5792
5708 5707 5707 5706 5706 5705 5705 5704 5704 5703 5703 5704 5704 5705 5707 5708 5709 5710 5710 5711 5712 5712 5713 5714 5714 5715 5715 5716 5717 5717 5718 5721 5722 5723 5724 5725 5726 5726 5727 5728 5729 5729 5730 5731 5732 5734 5735 5736 5737 5739 5741 5742 5744 5745 5747 5749 5751 5753 5756 5758 5760 5761 5763 5765 5766 5767 5767 5768 5769 5771 5772 5775 5776 5777 5777 5778 5780 5781 5782 5784 5785 5787 5787 5787 5787 5788 5790 5790
5705 5705 5704 5704 5703 5703 5703 5702 5702 5701 5701 5701 5702 5703 5704 5705 5706 5707 5708 5708 5709 5709 5710 5711 5712 5713 5713 5714 5714 5715 5716 5719 5719 5720 5721 5722 5723 5724 5724 5725 5726 5727 5727 5728 5730 5731 5732 5733 5735 5736 5738 5739 5741 5742 5744 5746 5748 5751 5753 5755 5757 5758 5760 5762 5763 5764 5764 5765 5766 5768 5770 5772 5774 5774 5775 5777 5778 5779 5781 5782 5783 5784 5784 5784 5785 5787 5788 5788
5703 5703 5702 5702 5701 5701 5701 5700 5700 5699 5699 5700 5700 5701 5702 5703 5703 5704 5705 5705 5706 5707 5708 5708 5709 5710 5710 5711 5712 5712 5714 5716 5716 5717 5719 5719 5720 5721 5722 5723 5723 5724 5725 5726 5727 5728 5730 5731 5732 5733 5735 5736 5738 5739 5741 5743 5745 5748 5750 5751 5753 5755 5757 5758 5759 5760 5761 5762 5764 5766 5768 5770 5771 5772 5773 5774 5776 5776 5779 5781 5781 5782 5782 5782 5783 5785 5785 5786
5700 5700 5700 5700 5699 5699 5699 5698 5698 5698 5697 5698 5698 5699 5700 5700 5701 5701 5702 5703 5703 5704 5705 5706 5707 5707 5707 5709 5710 5710 5712 5713 5714 5715 5716 5717 5717 5719 5720 5720 5721 5722 5723 5724 5725 5726 5727 5728 5730 5731 5732 5734 5735 5737 5738 5740 5742 5744 5746 5747 5750 5752 5754 5755 5756 5757 5759 5760 5762 5763 5765 5767 5769 5770 5771 5772 5773 5773 5775 5778 5779 5779 5780 5780 5782 5782 5783 5784
5698 5698 5698 5697 5697 5697 5696 5696 5696 5696 5696 5696 5696 5697 5698 5698 5698 5698 5699 5700 5700 5702 5702 5703 5704 5705 5705 5706 5707 5708 5709 5711 5711 5712 5713 5714 5715 5716 5718 5718 5719 5720 5721 5722 5722 5724 5725 5726 5727 5729 5730 5732 5733 5734 5735 5737 5738 5740 5742 5744 5747 5749 5751 5752 5753 5754 5756 5758 5759 5761 5762 5764 5766 5768 5768 5768 5769 5770 5772 5775 5776 5777 5778 5779 5779 5780 5780 5781
5695 5695 5695 5695 5695 5694 5694 5694 5694 5694 5694 5694 5694 5695 5695 5695 5695 5696 5697 5697 5698 5699 5700 5701 5702 5702 5703 5704 5705 5706 5707 5708 5709 5710 5711 5712 5713 5714 5715 5716 5717 5718 5719 5720 5721 5722 5723 5724 5726 5727 5728 5729 5730 5731 5732 5734 5736 5737 5740 5742 5744 5746 5748 5749 5750 5752 5754 5755 5757 5759 5760 5761 5763 5764 5765 5765 5766 5767 5769 5772 5774 5775 5776 5777 5777 5778 5778 5779
5692 5692 5692 5692 5692 5692 5692 5691 5692 5691 5691 5692 5692 5692 5692 5692 5693 5694 5695 5695 5696 5697 5698 5698 5699 5700 5700 5702 5703 5704 5705 5706 5707 5708 5709 5710 5711 5712 5713 5714 5715 5716 5717 5718 5719 5720 5721 5722 5723 5724 5725 5726 5727 5729 5731 5732 5734 5736 5737 5740 5742 5744 5745 5746 5747 5749 5751 5753 5755 5756 5758 5758 5759 5760 5761 5762 5763 5764 5767 5769 5771 5772 5773 5774 5775 5775 5776 5776
5688 5689 5689 5689 5689 5689 5689 5689 5689 5689 5689 5689 5690 5690 5689 5690 5691 5692 5693 5693 5693 5695 5695 5695 5696 5697 5698 5699 5700 5701 5703 5704 5705 5706 5707 5708 5709 5710 5711 5712 5713 5714 5715 5716 5717 5719 5720 5720 5720 5721 5722 5724 5726 5727 5729 5730 5732 5734 5736 5738 5740 5741 5743 5744 5745 5747 5749 5751 5752 5754 5755 5755 5756 5757 5758 5760 5761 5762 5765 5766 5768 5769 5770 5771 5772 5773 5774 5775
5685 5685 5685 5686 5686 5686 5686 5686 5686 5687 5687 5687 5687 5687 5687 5687 5688 5689 5690 5690 5691 5692 5692 5693 5694 5694 5696 5697 5698 5699 5700 5701 5703 5704 5705 5706 5706 5708 5709 5710 5711 5712 5713 5714 5716 5717 5717 5717 5718 5719 5721 5722 5724 5725 5727 5728 5730 5732 5734 5736 5738 5739 5741 5741 5743 5745 5746 5748 5750 5751 5752 5753 5754 5755 5756 5758 5759 5761 5763 5764 5765 5767 5768 5769 5770 5771 5773 5774
5682 5682 5682 5682 5682 5683 5683 5683 5683 5684 5684 5685 5685 5684 5684 5685 5686 5687 5688 5688 5688 5689 5690 5690 5691 5692 5694 5695 5696 5697 5698 5699 5701 5702 5703 5704 5705 5706 5707 5708 5709 5710 5711 5713 5713 5714 5715 5716 5717 5718 5720 5721 5722 5724 5725 5727 5728 5730 5732 5735 5736 5737 5738 5739 5740 5742 5744 5746 5748 5749 5750 5751 5752 5753 5755 5756 5758 5760 5761 5763 5764 5765 5766 5767 5769 5770 5772 5772
5678 5678 5678 5679 5679 5679 5680 5680 5680 5681 5681 5682 5682 5681 5682 5682 5684 5685 5685 5686 5686 5686 5688 5688 5688 5690 5692 5693 5694 5695 5696 5697 5699 5700 5701 5702 5703 5704 5705 5706 5707 5708 5709 5710 5711 5712 5713 5715 5716 5717 5718 5719 5721 5722 5724 5725 5727 5728 5731 5733 5734 5735 5736 5737 5738 5740 5742 5744 5746 5748 5749 5750 5751 5752 5753 5755 5757 5759 5760 5761 5763 5764 5765 5766 5768 5770 5770 5770
5675 5675 5675 5675 5675 5676 5676 5677 5677 5677 5678 5679 5679 5679 5679 5680 5681 5682 5683 5684 5684 5684 5685 5685 5686 5688 5689 5690 5691 5692 5694 5695 5696 5697 5698 5699 5701 5702 5703 5704 5705 5706 5707 5708 5709 5710 5712 5713 5714 5715 5717 5718 5720 5721 5722 5724 5725 5727 5729 5730 5731 5732 5734 5735 5736 5738 5740 5742 5744 5746 5748 5749 5750 5751 5752 5754 5756 5757 5758 5760 5761 5762 5763 5765 5767 5768 5768 5769
5672 5672 5671 5671 5671 5672 5672 5673 5673 5673 5674 5675 5676 5676 5676 5677 5678 5679 5680 5681 5681 5682 5682 5683 5684 5685 5686 5688 5689 5690 5691 5692 5694 5695 5696 5697 5699 5700 5701 5702 5704 5704 5705 5706 5707 5709 5710 5711 5713 5714 5715 5717 5718 5720 5721 5722 5724 5725 5727 5728 5729 5731 5732 5734 5735 5737 5739 5741 5742 5744 5746 5747 5748 5750 5751 5753 5754 5756 5757 5759 5760 5761 5762 5763 5765 5766 5767 5767
5668 5668 5668 5668 5668 5668 5668 5669 5669 5670 5671 5672 5672 5673 5673 5674 5675 5676 5677 5678 5679 5679 5680 5681 5682 5683 5684 5685 5687 5687 5688 5690 5692 5692 5693 5695 5696 5698 5699 5700 5702 5702 5703 5705 5706 5707 5708 5709 5711 5712 5714 5715 5717 5718 5719 5721 5722 5724 5725 5726 5728 5729 5731 5732 5734 5735 5737 5739 5741 5742 5744 5746 5747 5748 5750 5752 5753 5754 5756 5757 5758 5760 5761 5762 5763 5764 5765 5765
5664 5664 5664 5664 5664 5664 5665 5665 5665 5666 5667 5668 5669 5669 5670 5671 5672 5673 5674 5675 5676 5676 5677 5678 5679 5680 5682 5683 5684 5685 5686 5688 5689 5689 5691 5693 5694 5696 5697 5698 5699 5700 5701 5703 5703 5705 5706 5707 5709 5710 5712 5713 5715 5716 5717 5719 5721 5722 5723 5725 5726 5727 5729 5731 5732 5734 5735 5737 5739 5740 5742 5744 5745 5747 5748 5750 5751 5753 5754 5755 5757 5758 5759 5760 5761 5762 5763 5764
5659 5659 5660 5660 5660 5661 5661 5660 5660 5662 5664 5664 5665 5666 5667 5667 5669 5670 5671 5673 5674 5674 5674 5676 5677 5678 5680 5681 5681 5682 5683 5685 5686 5687 5688 5690 5692 5693 5695 5696 5697 5698 5700 5701 5702 5703 5704 5706 5707 5708 5710 5711 5713 5714 5716 5717 5719 5720 5722 5723 5724 5726 5727 5729 5730 5732 5733 5735 5736 5738 5740 5742 5744 5745 5746 5748 5749 5751 5752 5754 5755 5757 5758 5758 5759 5760 5761 5762
5655 5655 5655 5656 5656 5657 5657 5656 5656 5659 5660 5660 5661 5662 5663 5664 5665 5666 5669 5671 5670 5671 5672 5673 5674 5676 5677 5679 5679 5680 5681 5682 5684 5685 5686 5688 5690 5691 5692 5693 5695 5696 5698 5699 5700 5701 5703 5704 5706 5707 5708 5710 5711 5713 5714 5716 5717 5719 5720 5721 5723 5724 5725 5727 5729 5730 5731 5733 5734 5736 5738 5740 5741 5742 5744 5745 5747 5748 5750 5751 5753 5754 5755 5756 5757 5758 5759 5759
5650 5650 5651 5652 5652 5652 5652 5652 5653 5655 5656 5657 5657 5657 5659 5659 5660 5663 5667 5668 5667 5667 5669 5670 5672 5673 5675 5676 5677 5677 5678 5680 5681 5682 5684 5686 5687 5689 5690 5691 5693 5694 5696 5698 5699 5699 5701 5703 5704 5705 5707 5708 5710 5711 5712 5713 5715 5717 5718 5720 5721 5722 5723 5725 5726 5727 5729 5731 5732 5734 5735 5737 5738 5740 5741 5743 5744 5746 5747 5749 5750 5752 5753 5754 5755 5756 5756 5757
5646 5646 5646 5647 5648 5648 5648 5648 5650 5651 5652 5653 5652 5653 5654 5654 5657 5662 5664 5664 5663 5664 5666 5667 5669 5671 5672 5674 5675 5675 5676 5677 5679 5680 5681 5683 5685 5686 5687 5689 5690 5691 5693 5695 5697 5697 5699 5700 5701 5703 5704 5706 5708 5709 5710 5712 5714 5715 5717 5718 5719 5720 5721 5722 5723 5725 5726 5728 5730 5732 5733 5734 5735 5737 5739 5740 5742 5743 5745 5746 5747 5749 5750 5751 5752 5753 5754 5754
5642 5642 5642 5642 5643 5644 5643 5644 5644 5646 5648 5648 5648 5649 5649 5650 5655 5660 5661 5660 5660 5661 5663 5664 5666 5668 5670 5671 5672 5673 5674 5675 5676 5678 5679 5680 5682 5683 5685 5686 5687 5689 5691 5692 5694 5695 5696 5697 5699 5701 5702 5704 5706 5707 5709 5711 5712 5713 5714 5715 5717 5718 5719 5720 5721 5722 5724 5726 5728 5729 5730 5731 5733 5735 5736 5737 5739 5740 5742 5743 5744 5746 5748 5749 5749 5750 5751 5751
5638 5637 5638 5638 5638 5639 5639 5639 5639 5641 5642 5643 5643 5643 5644 5648 5654 5656 5657 5656 5656 5658 5660 5661 5663 5664 5666 5668 5669 5670 5671 5672 5674 5675 5676 5678 5680 5681 5683 5684 5685 5687 5688 5690 5691 5693 5694 5696 5697 5699 5700 5702 5704 5706 5707 5708 5709 5711 5712 5713 5714 5715 5716 5718 5719 5720 5721 5722 5724 5726 5727 5728 5730 5733 5734 5735 5736 5737 5739 5740 5741 5743 5745 5746 5747 5748 5748 5748
5634 5633 5633 5633 5633 5634 5634 5634 5634 5635 5637 5638 5638 5637 5641 5647 5650 5651 5652 5653 5653 5655 5657 5658 5659 5661 5663 5665 5666 5667 5669 5670 5671 5672 5674 5675 5677 5679 5680 5681 5683 5684 5686 5687 5689 5691 5693 5694 5695 5696 5698 5700 5702 5703 5704 5706 5707 5708 5709 5711 5712 5713 5714 5715 5716 5717 5718 5719 5720 5722 5723 5725 5728 5730 5731 5733 5734 5735 5736 5737 5738 5740 5741 5742 5744 5745 5745 5746
5630 5628 5628 5629 5629 5629 5629 5629 5629 5629 5631 5633 5632 5634 5639 5643 5645 5646 5648 5649 5650 5651 5653 5654 5656 5657 5659 5661 5663 5664 5666 5667 5668 5669 5671 5673 5674 5676 5678 5679 5680 5681 5683 5685 5686 5688 5690 5692 5692 5694 5695 5697 5699 5701 5702 5703 5704 5706 5707 5709 5710 5710 5711 5712 5713 5714 5715 5716 5717 5719 5720 5722 5724 5726 5728 5730 5731 5733 5734 5735 5736 5736 5738 5739 5740 5741 5741 5741
5625 5624 5623 5623 5623 5623 5623 5624 5623 5624 5625 5626 5627 5631 5635 5638 5640 5642 5643 5645 5646 5647 5649 5651 5652 5654 5656 5657 5659 5661 5662 5664 5665 5667 5669 5670 5671 5673 5675 5677 5678 5679 5680 5682 5684 5685 5687 5688 5689 5691 5692 5694 5696 5698 5699 5700 5701 5703 5705 5706 5707 5708 5708 5709 5711 5711 5712 5714 5715 5716 5718 5719 5721 5723 5725 5727 5729 5730 5731 5732 5732 5733 5733 5734 5735 5736 5736 5737
5621 5619 5618 5617 5617 5617 5617 5617 5618 5618 5619 5620 5624 5628 5631 5633 5635 5637 5638 5640 5642 5643 5645 5647 5648 5650 5652 5654 5656 5657 5659 5661 5662 5664 5665 5667 5668 5670 5673 5675 5676 5677 5678 5679 5681 5682 5684 5686 5687 5688 5690 5691 5692 5694 5696 5697 5699 5700 5702 5703 5704 5705 5706 5707 5708 5709 5710 5711 5712 5713 5715 5716 5718 5720 5722 5724 5725 5726 5727 5728 5728 5729 5729 5729 5730 5731 5732 5732
5616 5614 5612 5611 5611 5611 5611 5611 5611 5612 5613 5616 5620 5623 5626 5628 5630 5632 5633 5634 5636 5638 5641 5642 5644 5646 5648 5651 5653 5654 5656 5658 5659 5661 5662 5664 5665 5667 5669 5671 5672 5674 5675 5677 5678 5680 5681 5683 5684 5685 5686 5688 5689 5691 5693 5695 5696 5697 5698 5700 5701 5702 5703 5704 5705 5706 5707 5708 5709 5710 5711 5713 5715 5717 5718 5720 5721 5722 5723 5723 5724 5724 5724 5724 5725 5726 5727 5728
5610 5608 5607 5606 5604 5604 5604 5605 5605 5606 5608 5611 5615 5617 5620 5622 5624 5626 5627 5628 5630 5633 5636 5638 5640 5643 5645 5647 5649 5651 5653 5655 5656 5657 5659 5660 5662 5664 5666 5668 5669 5671 5672 5674 5675 5677 5678 5680 5681 5682 5683 5685 5687 5688 5690 5691 5693 5694 5695 5697 5698 5699 5701 5701 5702 5703 5704 5705 5706 5707 5709 5710 5712 5714 5715 5716 5717 5718 5719 5720 5720 5720 5720 5721 5722 5722 5723 5724
5604 5602 5600 5599 5598 5597 5598 5598 5599 5600 5602 5605 5609 5611 5614 5616 5618 5620 5621 5622 5625 5628 5631 5634 5637 5639 5642 5644 5646 5647 5649 5651 5653 5655 5656 5658 5659 5661 5662 5664 5666 5667 5669 5671 5672 5674 5675 5677 5678 5679 5681 5682 5683 5685 5686 5687 5689 5691 5692 5693 5695 5696 5697 5698 5699 5700 5702 5703 5704 5705 5706 5708 5709 5711 5712 5713 5715 5715 5716 5717 5717 5717 5717 5718 5718 5719 5720 5721
5600 5597 5595 5593 5592 5591 5592 5592 5593 5594 5596 5599 5603 5605 5608 5610 5613 5615 5616 5618 5621 5624 5628 5631 5633 5636 5638 5640 5642 5644 5646 5648 5650 5652 5653 5655 5656 5658 5659 5661 5662 5663 5665 5667 5669 5670 5672 5673 5675 5676 5678 5679 5681 5682 5683 5684 5685 5687 5689 5690 5691 5693 5694 5695 5697 5698 5699 5700 5701 5703 5704 5705 5707 5708 5709 5711 5712 5713 5714 5714 5714 5714 5715 5715 5716 5717 5718 5719
5596 5594 5592 5589 5588 5587 5587 5588 5588 5589 5591 5594 5597 5600 5602 5605 5608 5611 5613 5614 5617 5621 5624 5627 5630 5632 5635 5637 5639 5641 5643 5645 5647 5648 5650 5652 5653 5654 5656 5658 5659 5660 5662 5663 5665 5667 5668 5669 5671 5673 5675 5676 5677 5678 5679 5680 5682 5684 5685 5687 5688 5690 5691 5692 5694 5695 5696 5697 5698 5700 5701 5702 5704 5705 5706 5708 5709 5710 5711 5712 5712 5712 5712 5713 5714 5715 5716 5717
5593 5591 5589 5587 5585 5584 5584 5584 5584 5585 5586 5589 5592 5595 5598 5601 5604 5607 5609 5611 5614 5617 5620 5623 5626 5629 5631 5633 5636 5638 5639 5642 5643 5645 5646 5648 5650 5651 5652 5654 5655 5657 5659 5660 5662 5664 5665 5666 5668 5670 5672 5673 5674 5675 5677 5678 5680 5681 5683 5684 5685 5687 5688 5689 5690 5691 5692 5694 5695 5696 5698 5700 5701 5702 5703 5705 5706 5707 5708 5709 5709 5710 5710 5711 5712 5712 5713 5714
5590 5588 5587 5585 5583 5581 5580 5580 5581 5581 5583 5585 5588 5591 5594 5597 5600 5603 5606 5608 5611 5614 5617 5620 5623 5625 5627 5630 5632 5634 5636 5638 5640 5641 5643 5644 5646 5647 5649 5650 5652 5653 5655 5657 5658 5660 5662 5663 5664 5666 5668 5670 5671 5673 5675 5676 5677 5678 5679 5681 5682 5683 5684 5685 5687 5688 5689 5691 5692 5693 5695 5697 5698 5699 5700 5702 5703 5704 5705 5706 5707 5707 5708 5709 5709 5710 5710 5711
5588 5585 5583 5581 5579 5577 5577 5577 5578 5579 5580 5582 5585 5588 5591 5594 5597 5600 5603 5606 5608 5611 5613 5616 5619 5622 5624 5626 5628 5631 5633 5635 5636 5638 5640 5641 5643 5644 5646 5647 5648 5650 5651 5653 5654 5657 5659 5659 5660 5662 5664 5665 5667 5669 5670 5671 5673 5674 5675 5676 5678 5679 5680 5681 5683 5684 5686 5687 5688 5690 5691 5693 5695 5696 5697 5698 5699 5700 5701 5702 5703 5704 5705 5706 5707 5707 5708 5708
5587 5584 5581 5579 5576 5574 5574 5575 5577 5577 5578 5580 5583 5586 5589 5592 5595 5598 5600 5603 5605 5608 5610 5613 5616 5618 5620 5622 5625 5627 5629 5631 5633 5635 5636 5638 5639 5641 5643 5644 5646 5647 5648 5650 5651 5653 5655 5656 5657 5658 5659 5660 5663 5664 5666 5666 5667 5669 5670 5671 5673 5674 5676 5677 5679 5680 5682 5683 5685 5686 5688 5689 5691 5692 5693 5695 5696 5697 5698 5699 5700 5701 5702 5703 5704 5704 5705 5705
5586 5583 5579 5576 5573 5571 5572 5573 5575 5576 5576 5577 5581 5584 5587 5589 5592 5595 5597 5600 5602 5604 5607 5610 5613 5615 5617 5619 5621 5624 5626 5628 5630 5631 5633 5635 5636 5638 5639 5641 5643 5644 5645 5647 5648 5650 5652 5653 5655 5656 5656 5657 5658 5660 5660 5661 5663 5664 5666 5668 5669 5671 5672 5674 5675 5676 5678 5679 5680 5682 5684 5685 5687 5688 5690 5691 5692 5693 5694 5695 5696 5697 5698 5699 5700 5701 5701 5702
5585 5582 5578 5575 5572 5570 5570 5572 5574 5575 5575 5576 5580 5582 5585 5587 5590 5592 5595 5597 5599 5602 5604 5607 5609 5612 5614 5616 5618 5620 5622 5624 5626 5628 5630 5632 5633 5634 5636 5637 5639 5641 5643 5643 5645 5647 5649 5650 5651 5652 5653 5654 5655 5656 5657 5657 5659 5661 5662 5664 5665 5666 5667 5669 5670 5672 5673 5675 5676 5678 5679 5681 5682 5684 5686 5687 5688 5689 5690 5691 5692 5693 5694 5695 5696 5697 5697 5698
5585 5582 5578 5575 5572 5570 5570 5572 5574 5575 5575 5577 5579 5582 5584 5586 5588 5590 5593 5595 5597 5599 5602 5604 5606 5609 5611 5613 5615 5617 5619 5621 5623 5624 5626 5628 5630 5631 5632 5634 5635 5637 5639 5640 5641 5642 5644 5646 5648 5649 5649 5650 5651 5652 5653 5654 5655 5657 5658 5660 5661 5662 5663 5664 5666 5667 5668 5670 5672 5673 5675 5676 5678 5679 5681 5683 5684 5685 5686 5687 5687 5688 5689 5690 5691 5692 5693 5693
5586 5582 5579 5575 5573 5571 5571 5572 5573 5574 5576 5578 5579 5581 5583 5585 5587 5589 5591 5593 5595 5597 5599 5602 5604 5606 5608 5610 5612 5614 5616 5618 5619 5621 5622 5624 5626 5627 5629 5631 5632 5633 5635 5636 5638 5639 5640 5641 5643 5644 5645 5646 5647 5648 5649 5650 5651 5653 5655 5656 5657 5658 5659 5660 5661 5663 5664 5666 5668 5669 5670 5672 5673 5674 5676 5677 5678 5680 5681 5682 5683 5684 5684 5685 5686 5686 5687 5688